IST,Max TemperatureF,Mean TemperatureF,Min TemperatureF,Max Dew PointF,MeanDew PointF,Min DewpointF,Max Humidity, Mean Humidity, Min Humidity, Max Sea Level PressureIn, Mean Sea Level PressureIn, Min Sea Level PressureIn, Max VisibilityMiles, Mean VisibilityMiles, Min VisibilityMiles, Max Wind SpeedMPH, Mean Wind SpeedMPH, Max Gust SpeedMPH,PrecipitationIn, CloudCover, Events, WindDirDegrees
2013-5-1,58,48,39,45,39,34,93,71,36,30.31,30.26,30.24,19,7,6,16,10,,0.00,4,Rain,266
2013-5-2,59,45,31,43,40,32,100,73,41,30.31,30.20,30.12,7,6,3,15,7,,0.00,5,Fog,200
2013-5-3,57,52,48,48,45,43,94,73,57,30.13,29.97,29.86,19,7,4,26,16,36,0.00,6,Rain,229
2013-5-4,59,52,44,50,42,37,93,72,39,29.98,29.90,29.80,19,7,6,25,17,37,0.00,5,Rain,246
2013-5-5,63,57,51,51,47,43,94,73,48,30.09,30.03,29.98,12,6,6,22,15,,0.00,5,Rain,221
2013-5-6,62,53,42,50,46,41,93,73,51,30.09,30.03,29.98,19,6,6,14,9,,0.00,5,Rain,188
2013-5-7,61,50,39,48,44,39,100,76,52,30.04,29.93,29.71,19,7,4,18,8,,0.01,3,Rain,114
2013-5-8,61,54,46,52,46,37,100,81,57,29.68,29.45,29.30,16,6,2,31,16,43,0.04,5,Rain,177
2013-5-9,53,49,45,48,41,36,88,77,60,29.53,29.34,29.18,19,7,5,28,21,39,0.16,6,Rain,216
2013-5-10,57,50,44,50,42,34,100,75,37,29.71,29.66,29.53,16,6,2,28,18,38,0.00,5,Rain,242
2013-5-11,52,47,42,45,40,37,100,78,47,29.95,29.75,29.65,19,6,6,28,17,38,0.08,4,Rain,264
2013-5-12,57,49,41,50,44,36,94,83,71,29.97,29.85,29.77,16,6,4,29,16,36,0.08,5,Rain,247
2013-5-13,51,46,41,43,37,32,87,74,48,29.84,29.76,29.71,16,7,3,30,20,46,0.12,3,Rain,254
2013-5-14,56,47,38,43,37,33,93,72,37,29.71,29.51,29.36,19,7,6,18,15,,0.00,3,Rain,236
2013-5-15,54,46,39,41,38,34,93,77,45,29.53,29.46,29.42,19,7,6,24,16,37,0.03,4,Rain,307
2013-5-16,49,42,35,41,38,34,93,79,60,29.62,29.50,29.47,19,6,6,16,8,,0.00,5,Rain,165
2013-5-17,55,43,31,45,39,30,100,78,40,29.92,29.79,29.62,19,7,6,14,8,,0.00,4,,13
2013-5-18,51,46,42,48,43,37,100,83,65,29.92,29.81,29.71,19,7,2,16,11,,0.02,6,Rain,282
2013-5-19,60,54,47,48,46,43,100,76,50,30.04,29.92,29.77,19,6,3,12,5,,0.00,4,Rain,122
2013-5-20,60,56,50,52,49,45,94,83,74,30.12,30.04,30.01,16,7,6,20,10,,0.00,6,Rain,303
2013-5-21,63,54,46,48,45,43,93,74,51,30.18,30.14,30.12,16,7,6,22,15,31,0.00,5,,307
2013-5-22,57,52,46,48,40,34,100,69,45,30.26,30.20,30.18,6,6,6,22,13,24,0.00,6,Rain,309
2013-5-23,51,45,39,41,35,30,87,67,41,30.21,30.13,30.06,19,6,6,24,15,40,0.02,5,Rain,319
2013-5-24,56,46,37,39,35,32,87,63,40,30.21,30.09,30.01,6,6,6,23,15,36,0.00,5,Rain,352
2013-5-25,58,46,34,43,38,32,93,66,37,30.25,30.19,30.15,6,6,6,17,6,,0.00,4,,165
2013-5-26,63,56,49,48,45,40,94,71,35,30.18,30.03,29.80,19,7,6,18,11,,0.00,4,Rain,224
2013-5-27,57,52,46,48,43,39,94,75,54,29.77,29.51,29.42,19,7,6,20,14,26,0.24,6,Rain,215
2013-5-28,56,49,42,46,41,39,93,73,49,29.65,29.57,29.50,19,7,6,14,8,,0.12,4,Rain,185
2013-5-29,65,56,47,50,45,41,93,69,41,29.98,29.83,29.65,19,6,4,20,14,,0.00,4,Rain,10
2013-5-30,67,57,47,46,44,41,82,62,37,30.12,30.04,29.98,19,7,6,22,14,31,0.00,1,,328
2013-5-31,60,51,41,52,44,36,93,74,49,30.27,30.19,30.12,19,7,6,17,10,,0.00,5,,291